date,time,SUV Intensity [MED/Hr],UV Index,Daily total [MED],Since Last [MED]
27/04/2023,00:01:05,-0.000,0.0,0.0,0.0
27/04/2023,00:02:06,0.000,0.0,0.0,0.0
27/04/2023,00:03:05,-0.000,0.0,0.0,0.0
27/04/2023,00:04:05,-0.001,0.0,0.0,0.0
27/04/2023,00:05:05,0.000,0.0,0.0,0.0
27/04/2023,00:06:05,0.000,0.0,0.0,0.0
27/04/2023,00:07:05,0.001,0.0,0.0,0.0
27/04/2023,00:08:05,-0.000,0.0,0.0,0.0
27/04/2023,00:09:05,-0.000,0.0,0.0,0.0
27/04/2023,00:10:06,0.000,0.0,0.0,0.0
27/04/2023,00:11:05,-0.000,0.0,0.0,0.0
27/04/2023,00:12:06,0.000,0.0,0.0,0.0
27/04/2023,00:13:06,0.000,0.0,0.0,0.0
27/04/2023,00:14:05,0.000,0.0,0.0,0.0
27/04/2023,00:15:05,0.000,0.0,0.0,0.0
27/04/2023,00:16:05,-0.001,0.0,0.0,0.0
27/04/2023,00:17:05,0.000,0.0,0.0,0.0
27/04/2023,00:18:05,0.000,0.0,0.0,0.0
27/04/2023,00:19:05,0.000,0.0,0.0,0.0
27/04/2023,00:20:05,-0.001,0.0,0.0,0.0
27/04/2023,00:21:06,0.000,0.0,0.0,0.0
27/04/2023,00:22:05,0.000,0.0,0.0,0.0
27/04/2023,00:23:05,0.000,0.0,0.0,0.0
27/04/2023,00:24:05,0.001,0.0,0.0,0.0
27/04/2023,00:25:05,0.000,0.0,0.0,0.0
27/04/2023,00:26:05,-0.000,0.0,0.0,0.0
27/04/2023,00:27:06,0.000,0.0,0.0,0.0
27/04/2023,00:28:06,0.000,0.0,0.0,0.0
27/04/2023,00:29:06,0.001,0.0,0.0,0.0
27/04/2023,00:30:05,0.000,0.0,0.0,0.0
27/04/2023,00:31:05,0.001,0.0,0.0,0.0
27/04/2023,00:32:05,-0.000,0.0,0.0,0.0
27/04/2023,00:33:06,0.000,0.0,0.0,0.0
27/04/2023,00:34:05,0.000,0.0,0.0,0.0
27/04/2023,00:35:06,-0.000,0.0,0.0,0.0
27/04/2023,00:36:05,-0.000,0.0,0.0,0.0
27/04/2023,00:37:05,0.000,0.0,0.0,0.0
27/04/2023,00:38:05,0.000,0.0,0.0,0.0
27/04/2023,00:39:05,0.000,0.0,0.0,0.0
27/04/2023,00:40:05,0.000,0.0,0.0,0.0
27/04/2023,00:41:05,0.001,0.0,0.0,0.0
27/04/2023,00:42:05,0.001,0.0,0.0,0.0
27/04/2023,00:43:05,0.000,0.0,0.0,0.0
27/04/2023,00:44:06,0.001,0.0,0.0,0.0
27/04/2023,00:45:06,0.000,0.0,0.0,0.0
27/04/2023,00:46:05,0.001,0.0,0.0,0.0
27/04/2023,00:47:05,0.000,0.0,0.0,0.0
27/04/2023,00:48:05,0.000,0.0,0.0,0.0
27/04/2023,00:49:05,0.000,0.0,0.0,0.0
27/04/2023,00:50:06,0.001,0.0,0.0,0.0
27/04/2023,00:51:05,0.000,0.0,0.0,0.0
27/04/2023,00:52:05,0.000,0.0,0.0,0.0
27/04/2023,00:53:05,-0.000,0.0,0.0,0.0
27/04/2023,00:54:05,0.000,0.0,0.0,0.0
27/04/2023,00:55:05,0.000,0.0,0.0,0.0
27/04/2023,00:56:05,0.000,0.0,0.0,0.0
27/04/2023,00:57:05,0.000,0.0,0.0,0.0
27/04/2023,00:58:06,0.000,0.0,0.0,0.0
27/04/2023,00:59:05,0.000,0.0,0.0,0.0
27/04/2023,01:00:05,-0.001,0.0,0.0,0.0
27/04/2023,01:01:05,0.000,0.0,0.0,0.0
27/04/2023,01:02:05,0.000,0.0,0.0,0.0
27/04/2023,01:03:05,0.000,0.0,0.0,0.0
27/04/2023,01:04:05,0.001,0.0,0.0,0.0
27/04/2023,01:05:05,0.000,0.0,0.0,0.0
27/04/2023,01:06:06,0.000,0.0,0.0,0.0
27/04/2023,01:07:05,0.000,0.0,0.0,0.0
27/04/2023,01:08:05,0.000,0.0,0.0,0.0
27/04/2023,01:09:05,0.000,0.0,0.0,0.0
27/04/2023,01:10:05,0.002,0.0,0.0,0.0
27/04/2023,01:11:05,0.000,0.0,0.0,0.0
27/04/2023,01:12:06,0.000,0.0,0.0,0.0
27/04/2023,01:13:05,0.000,0.0,0.0,0.0
27/04/2023,01:14:06,-0.000,0.0,0.0,0.0
27/04/2023,01:15:06,-0.000,0.0,0.0,0.0
27/04/2023,01:16:06,0.000,0.0,0.0,0.0
27/04/2023,01:17:06,0.001,0.0,0.0,0.0
27/04/2023,01:18:06,0.000,0.0,0.0,0.0
27/04/2023,01:19:06,0.000,0.0,0.0,0.0
27/04/2023,01:20:05,0.001,0.0,0.0,0.0
27/04/2023,01:21:05,0.001,0.0,0.0,0.0
27/04/2023,01:22:05,0.001,0.0,0.0,0.0
27/04/2023,01:23:05,0.000,0.0,0.0,0.0
27/04/2023,01:24:05,0.001,0.0,0.0,0.0
27/04/2023,01:25:05,0.001,0.0,0.0,0.0
27/04/2023,01:26:05,0.001,0.0,0.0,0.0
27/04/2023,01:27:05,0.001,0.0,0.0,0.0
27/04/2023,01:28:05,0.002,0.0,0.0,0.0
27/04/2023,01:29:05,0.001,0.0,0.0,0.0
27/04/2023,01:30:05,0.000,0.0,0.0,0.0
27/04/2023,01:31:06,0.001,0.0,0.0,0.0
27/04/2023,01:32:06,0.001,0.0,0.0,0.0
27/04/2023,01:33:06,0.000,0.0,0.0,0.0
27/04/2023,01:34:05,0.001,0.0,0.0,0.0
27/04/2023,01:35:05,0.001,0.0,0.0,0.0
27/04/2023,01:36:05,0.001,0.0,0.0,0.0
27/04/2023,01:37:05,0.001,0.0,0.0,0.0
27/04/2023,01:38:05,0.001,0.0,0.0,0.0
27/04/2023,01:39:05,0.001,0.0,0.0,0.0
27/04/2023,01:40:05,-0.000,0.0,0.0,0.0
27/04/2023,01:41:05,0.001,0.0,0.0,0.0
27/04/2023,01:42:06,0.001,0.0,0.0,0.0
27/04/2023,01:43:05,0.001,0.0,0.0,0.0
27/04/2023,01:44:05,0.001,0.0,0.0,0.0
27/04/2023,01:45:05,0.001,0.0,0.0,0.0
27/04/2023,01:46:05,0.001,0.0,0.0,0.0
27/04/2023,01:47:06,0.001,0.0,0.0,0.0
27/04/2023,01:48:06,0.001,0.0,0.0,0.0
27/04/2023,01:49:05,0.001,0.0,0.0,0.0
27/04/2023,01:50:05,0.001,0.0,0.0,0.0
27/04/2023,01:51:06,0.001,0.0,0.0,0.0
27/04/2023,01:52:05,0.001,0.0,0.0,0.0
27/04/2023,01:53:06,0.001,0.0,0.0,0.0
27/04/2023,01:54:06,0.001,0.0,0.0,0.0
27/04/2023,01:55:06,0.001,0.0,0.0,0.0
27/04/2023,01:56:06,0.001,0.0,0.0,0.0
27/04/2023,01:57:05,0.001,0.0,0.0,0.0
27/04/2023,01:58:05,0.001,0.0,0.0,0.0
27/04/2023,01:59:36,0.001,0.0,0.0,0.0
27/04/2023,02:01:06,0.001,0.0,0.0,0.0
27/04/2023,02:02:05,0.001,0.0,0.0,0.0
27/04/2023,02:03:05,0.001,0.0,0.0,0.0
27/04/2023,02:04:05,0.001,0.0,0.0,0.0
27/04/2023,02:05:06,0.001,0.0,0.0,0.0
27/04/2023,02:06:06,0.001,0.0,0.0,0.0
27/04/2023,02:07:06,0.001,0.0,0.0,0.0
27/04/2023,02:08:05,0.001,0.0,0.0,0.0
27/04/2023,02:09:05,0.001,0.0,0.0,0.0
27/04/2023,02:10:05,0.001,0.0,0.0,0.0
27/04/2023,02:11:05,0.001,0.0,0.0,0.0
27/04/2023,02:12:05,0.002,0.0,0.0,0.0
27/04/2023,02:13:06,0.001,0.0,0.0,0.0
27/04/2023,02:14:05,0.001,0.0,0.0,0.0
27/04/2023,02:15:05,0.001,0.0,0.0,0.0
27/04/2023,02:16:05,0.001,0.0,0.0,0.0
27/04/2023,02:17:05,0.001,0.0,0.0,0.0
27/04/2023,02:18:05,0.001,0.0,0.0,0.0
27/04/2023,02:19:05,0.001,0.0,0.0,0.0
27/04/2023,02:20:05,0.001,0.0,0.0,0.0
27/04/2023,02:21:05,0.001,0.0,0.0,0.0
27/04/2023,02:22:05,0.001,0.0,0.0,0.0
27/04/2023,02:23:05,0.001,0.0,0.0,0.0
27/04/2023,02:24:05,0.001,0.0,0.0,0.0
27/04/2023,02:25:05,0.001,0.0,0.0,0.0
27/04/2023,02:26:06,0.002,0.0,0.0,0.0
27/04/2023,02:27:06,0.000,0.0,0.0,0.0
27/04/2023,02:28:05,0.001,0.0,0.0,0.0
27/04/2023,02:29:05,0.001,0.0,0.0,0.0
27/04/2023,02:30:05,0.001,0.0,0.0,0.0
27/04/2023,02:31:06,0.001,0.0,0.0,0.0
27/04/2023,02:32:05,0.001,0.0,0.0,0.0
27/04/2023,02:33:05,0.002,0.0,0.0,0.0
27/04/2023,02:34:05,0.002,0.0,0.0,0.0
27/04/2023,02:35:05,0.002,0.0,0.0,0.0
27/04/2023,02:36:06,0.001,0.0,0.0,0.0
27/04/2023,02:37:05,0.001,0.0,0.0,0.0
27/04/2023,02:38:06,0.001,0.0,0.0,0.0
27/04/2023,02:39:05,0.001,0.0,0.0,0.0
27/04/2023,02:40:05,0.001,0.0,0.0,0.0
27/04/2023,02:41:05,0.001,0.0,0.0,0.0
27/04/2023,02:42:05,0.000,0.0,0.0,0.0
27/04/2023,02:43:05,0.001,0.0,0.0,0.0
27/04/2023,02:44:05,0.003,0.0,0.0,0.0
27/04/2023,02:45:05,0.001,0.0,0.0,0.0
27/04/2023,02:46:05,0.001,0.0,0.0,0.0
27/04/2023,02:47:06,0.001,0.0,0.0,0.0
27/04/2023,02:48:06,0.001,0.0,0.0,0.0
27/04/2023,02:49:06,0.001,0.0,0.0,0.0
27/04/2023,02:50:06,0.001,0.0,0.0,0.0
27/04/2023,02:51:06,0.001,0.0,0.0,0.0
27/04/2023,02:52:06,0.001,0.0,0.0,0.0
27/04/2023,02:53:06,0.001,0.0,0.0,0.0
27/04/2023,02:54:06,0.001,0.0,0.0,0.0
27/04/2023,02:55:06,0.001,0.0,0.0,0.0
27/04/2023,02:56:05,0.001,0.0,0.0,0.0
27/04/2023,02:57:05,0.003,0.0,0.0,0.0
27/04/2023,02:58:05,0.001,0.0,0.0,0.0
27/04/2023,02:59:06,0.001,0.0,0.0,0.0
27/04/2023,03:00:05,0.001,0.0,0.0,0.0
27/04/2023,03:01:06,0.001,0.0,0.0,0.0
27/04/2023,03:02:06,0.001,0.0,0.0,0.0
27/04/2023,03:03:06,0.001,0.0,0.0,0.0
27/04/2023,03:04:05,0.001,0.0,0.0,0.0
27/04/2023,03:05:06,0.001,0.0,0.0,0.0
27/04/2023,03:06:06,0.001,0.0,0.0,0.0
27/04/2023,03:07:06,0.001,0.0,0.0,0.0
27/04/2023,03:08:06,0.001,0.0,0.0,0.0
27/04/2023,03:09:05,0.000,0.0,0.0,0.0
27/04/2023,03:10:06,0.001,0.0,0.0,0.0
27/04/2023,03:11:05,0.001,0.0,0.0,0.0
27/04/2023,03:12:05,0.001,0.0,0.0,0.0
27/04/2023,03:13:06,0.001,0.0,0.0,0.0
27/04/2023,03:14:06,0.001,0.0,0.0,0.0
27/04/2023,03:15:07,0.001,0.0,0.0,0.0
27/04/2023,03:16:06,0.001,0.0,0.0,0.0
27/04/2023,03:17:05,0.002,0.0,0.0,0.0
27/04/2023,03:18:05,0.001,0.0,0.0,0.0
27/04/2023,03:19:05,0.001,0.0,0.0,0.0
27/04/2023,03:20:05,0.001,0.0,0.0,0.0
27/04/2023,03:21:05,0.001,0.0,0.0,0.0
27/04/2023,03:22:05,0.001,0.0,0.0,0.0
27/04/2023,03:23:06,0.001,0.0,0.0,0.0
27/04/2023,03:24:05,0.001,0.0,0.0,0.0
27/04/2023,03:25:05,0.001,0.0,0.0,0.0
27/04/2023,03:26:05,0.001,0.0,0.0,0.0
27/04/2023,03:27:05,0.001,0.0,0.0,0.0
27/04/2023,03:28:05,0.001,0.0,0.0,0.0
27/04/2023,03:29:06,0.001,0.0,0.0,0.0
27/04/2023,03:30:06,0.001,0.0,0.0,0.0
27/04/2023,03:31:06,0.001,0.0,0.0,0.0
27/04/2023,03:32:05,0.001,0.0,0.0,0.0
27/04/2023,03:33:06,0.001,0.0,0.0,0.0
27/04/2023,03:34:06,0.001,0.0,0.0,0.0
27/04/2023,03:35:05,0.001,0.0,0.0,0.0
27/04/2023,03:36:06,0.001,0.0,0.0,0.0
27/04/2023,03:37:05,0.001,0.0,0.0,0.0
27/04/2023,03:38:05,0.001,0.0,0.0,0.0
27/04/2023,03:39:06,0.001,0.0,0.0,0.0
27/04/2023,03:40:06,0.001,0.0,0.0,0.0
27/04/2023,03:41:06,0.001,0.0,0.0,0.0
27/04/2023,03:42:05,0.001,0.0,0.0,0.0
27/04/2023,03:43:05,0.001,0.0,0.0,0.0
27/04/2023,03:44:06,0.001,0.0,0.0,0.0
27/04/2023,03:45:06,0.001,0.0,0.0,0.0
27/04/2023,03:46:06,0.001,0.0,0.0,0.0
27/04/2023,03:47:05,0.001,0.0,0.0,0.0
27/04/2023,03:48:06,0.001,0.0,0.0,0.0
27/04/2023,03:49:06,0.001,0.0,0.0,0.0
27/04/2023,03:50:06,0.001,0.0,0.0,0.0
27/04/2023,03:51:05,0.001,0.0,0.0,0.0
27/04/2023,03:52:05,0.001,0.0,0.0,0.0
27/04/2023,03:53:05,0.001,0.0,0.0,0.0
27/04/2023,03:54:05,0.001,0.0,0.0,0.0
27/04/2023,03:55:05,0.001,0.0,0.0,0.0
27/04/2023,03:56:05,0.001,0.0,0.0,0.0
27/04/2023,03:57:06,0.001,0.0,0.0,0.0
27/04/2023,03:58:06,0.002,0.0,0.0,0.0
27/04/2023,03:59:06,0.001,0.0,0.0,0.0
27/04/2023,04:00:05,0.001,0.0,0.0,0.0
27/04/2023,04:01:05,0.001,0.0,0.0,0.0
27/04/2023,04:02:05,0.001,0.0,0.0,0.0
27/04/2023,04:03:06,0.001,0.0,0.0,0.0
27/04/2023,04:04:06,0.001,0.0,0.0,0.0
27/04/2023,04:05:05,0.001,0.0,0.0,0.0
27/04/2023,04:06:06,0.001,0.0,0.0,0.0
27/04/2023,04:07:06,0.001,0.0,0.0,0.0
27/04/2023,04:08:05,0.001,0.0,0.0,0.0
27/04/2023,04:09:05,0.001,0.0,0.0,0.0
27/04/2023,04:10:06,0.001,0.0,0.0,0.0
27/04/2023,04:11:05,0.001,0.0,0.0,0.0
27/04/2023,04:12:05,0.001,0.0,0.0,0.0
27/04/2023,04:13:05,0.001,0.0,0.0,0.0
27/04/2023,04:14:05,0.001,0.0,0.0,0.0
27/04/2023,04:15:05,0.001,0.0,0.0,0.0
27/04/2023,04:16:05,0.001,0.0,0.0,0.0
27/04/2023,04:17:06,0.001,0.0,0.0,0.0
27/04/2023,04:18:06,0.001,0.0,0.0,0.0
27/04/2023,04:19:05,0.001,0.0,0.0,0.0
27/04/2023,04:20:06,0.001,0.0,0.0,0.0
27/04/2023,04:21:06,0.001,0.0,0.0,0.0
27/04/2023,04:22:06,0.001,0.0,0.0,0.0
27/04/2023,04:23:06,0.001,0.0,0.0,0.0
27/04/2023,04:24:05,0.001,0.0,0.0,0.0
27/04/2023,04:25:05,0.001,0.0,0.0,0.0
27/04/2023,04:26:06,0.001,0.0,0.0,0.0
27/04/2023,04:27:06,0.001,0.0,0.0,0.0
27/04/2023,04:28:05,0.002,0.0,0.0,0.0
27/04/2023,04:29:05,0.002,0.0,0.0,0.0
27/04/2023,04:30:06,0.001,0.0,0.0,0.0
27/04/2023,04:31:06,0.002,0.0,0.0,0.0
27/04/2023,04:32:06,0.002,0.0,0.0,0.0
27/04/2023,04:33:05,0.001,0.0,0.0,0.0
27/04/2023,04:34:06,0.001,0.0,0.0,0.0
27/04/2023,04:35:06,0.002,0.0,0.0,0.0
27/04/2023,04:36:06,0.002,0.0,0.0,0.0
27/04/2023,04:37:05,0.002,0.0,0.0,0.0
27/04/2023,04:38:06,0.001,0.0,0.0,0.0
27/04/2023,04:39:06,0.002,0.0,0.0,0.0
27/04/2023,04:40:06,0.001,0.0,0.0,0.0
27/04/2023,04:41:05,0.003,0.0,0.0,0.0
27/04/2023,04:42:06,0.002,0.0,0.0,0.0
27/04/2023,04:43:06,0.002,0.0,0.0,0.0
27/04/2023,04:44:05,0.002,0.0,0.0,0.0
27/04/2023,04:45:06,0.002,0.0,0.0,0.0
27/04/2023,04:46:05,0.003,0.0,0.0,0.0
27/04/2023,04:47:06,0.002,0.0,0.0,0.0
27/04/2023,04:48:06,0.002,0.0,0.0,0.0
27/04/2023,04:49:06,0.003,0.0,0.0,0.0
27/04/2023,04:50:05,0.003,0.0,0.0,0.0
27/04/2023,04:51:06,0.003,0.0,0.0,0.0
27/04/2023,04:52:06,0.002,0.0,0.0,0.0
27/04/2023,04:53:06,0.003,0.0,0.0,0.0
27/04/2023,04:54:06,0.003,0.0,0.0,0.0
27/04/2023,04:55:06,0.004,0.0,0.0,0.0
27/04/2023,04:56:06,0.004,0.0,0.0,0.0
27/04/2023,04:57:06,0.004,0.0,0.0,0.0
27/04/2023,04:58:06,0.005,0.0,0.0,0.0
27/04/2023,04:59:05,0.004,0.0,0.0,0.0
27/04/2023,05:00:06,0.004,0.0,0.0,0.0
27/04/2023,05:01:05,0.004,0.0,0.0,0.0
27/04/2023,05:02:06,0.005,0.0,0.0,0.0
27/04/2023,05:03:06,0.005,0.0,0.0,0.0
27/04/2023,05:04:06,0.005,0.0,0.0,0.0
27/04/2023,05:05:06,0.005,0.0,0.0,0.0
27/04/2023,05:06:07,0.005,0.0,0.0,0.0
27/04/2023,05:07:07,0.006,0.0,0.0,0.0
27/04/2023,05:08:05,0.007,0.0,0.0,0.0
27/04/2023,05:09:05,0.006,0.0,0.0,0.0
27/04/2023,05:10:05,0.007,0.0,0.0,0.0
27/04/2023,05:11:06,0.007,0.0,0.0,0.0
27/04/2023,05:12:06,0.007,0.0,0.0,0.0
27/04/2023,05:13:06,0.007,0.0,0.001,0.001
27/04/2023,05:14:05,0.007,0.0,0.001,0.0
27/04/2023,05:15:06,0.009,0.0,0.001,0.0
27/04/2023,05:16:07,0.008,0.0,0.001,0.0
27/04/2023,05:17:06,0.009,0.0,0.001,0.0
27/04/2023,05:18:06,0.009,0.0,0.001,0.0
27/04/2023,05:19:06,0.009,0.0,0.001,0.0
27/04/2023,05:20:06,0.009,0.0,0.001,0.0
27/04/2023,05:21:06,0.009,0.0,0.002,0.001
27/04/2023,05:22:05,0.009,0.0,0.002,0.0
27/04/2023,05:23:05,0.010,0.0,0.002,0.0
27/04/2023,05:24:06,0.011,0.0,0.002,0.0
27/04/2023,05:25:05,0.010,0.0,0.002,0.0
27/04/2023,05:26:06,0.011,0.0,0.002,0.0
27/04/2023,05:27:06,0.010,0.0,0.003,0.001
27/04/2023,05:28:06,0.012,0.0,0.003,0.0
27/04/2023,05:29:06,0.012,0.0,0.003,0.0
27/04/2023,05:30:05,0.012,0.0,0.003,0.0
27/04/2023,05:31:05,0.012,0.0,0.003,0.0
27/04/2023,05:32:05,0.012,0.0,0.004,0.001
27/04/2023,05:33:05,0.013,0.0,0.004,0.0
27/04/2023,05:34:05,0.012,0.0,0.004,0.0
27/04/2023,05:35:05,0.013,0.0,0.004,0.0
27/04/2023,05:36:06,0.013,0.0,0.005,0.001
27/04/2023,05:37:06,0.015,0.0,0.005,0.0
27/04/2023,05:38:06,0.014,0.0,0.005,0.0
27/04/2023,05:39:06,0.016,0.0,0.005,0.0
27/04/2023,05:40:06,0.017,0.0,0.006,0.001
27/04/2023,05:41:06,0.016,0.0,0.006,0.0
27/04/2023,05:42:06,0.018,0.0,0.006,0.0
27/04/2023,05:43:06,0.019,0.0,0.006,0.0
27/04/2023,05:44:06,0.018,0.0,0.007,0.001
27/04/2023,05:45:06,0.019,0.0,0.007,0.0
27/04/2023,05:46:06,0.018,0.0,0.007,0.0
27/04/2023,05:47:06,0.020,0.0,0.008,0.001
27/04/2023,05:48:05,0.020,0.0,0.008,0.0
27/04/2023,05:49:06,0.021,0.0,0.008,0.0
27/04/2023,05:50:06,0.021,0.0,0.009,0.001
27/04/2023,05:51:06,0.022,0.0,0.009,0.0
27/04/2023,05:52:05,0.023,0.0,0.009,0.0
27/04/2023,05:53:06,0.025,0.0,0.01,0.001
27/04/2023,05:54:07,0.025,0.0,0.01,0.0
27/04/2023,05:55:07,0.026,0.0,0.011,0.001
27/04/2023,05:56:06,0.027,0.0,0.011,0.0
27/04/2023,05:57:05,0.027,0.0,0.012,0.001
27/04/2023,05:58:06,0.028,0.0,0.012,0.0
27/04/2023,05:59:06,0.028,0.0,0.012,0.0
27/04/2023,06:00:06,0.027,0.0,0.013,0.001
27/04/2023,06:01:06,0.029,0.0,0.013,0.0
27/04/2023,06:02:06,0.030,0.0,0.014,0.001
27/04/2023,06:03:06,0.030,0.0,0.014,0.0
27/04/2023,06:04:06,0.031,0.0,0.015,0.001
27/04/2023,06:05:06,0.032,0.0,0.015,0.0
27/04/2023,06:06:05,0.033,0.0,0.016,0.001
27/04/2023,06:07:06,0.035,0.0,0.016,0.0
27/04/2023,06:08:06,0.036,0.0,0.017,0.001
27/04/2023,06:09:06,0.037,0.0,0.018,0.001
27/04/2023,06:10:06,0.039,0.0,0.018,0.0
27/04/2023,06:11:06,0.041,0.0,0.019,0.001
27/04/2023,06:12:06,0.043,0.0,0.02,0.001
27/04/2023,06:13:05,0.043,0.0,0.02,0.0
27/04/2023,06:14:06,0.044,0.0,0.021,0.001
27/04/2023,06:15:05,0.045,0.0,0.022,0.001
27/04/2023,06:16:06,0.044,0.0,0.023,0.001
27/04/2023,06:17:05,0.044,0.0,0.023,0.0
27/04/2023,06:18:06,0.045,0.0,0.024,0.001
27/04/2023,06:19:06,0.044,0.0,0.025,0.001
27/04/2023,06:20:05,0.045,0.0,0.025,0.0
27/04/2023,06:21:05,0.044,0.0,0.026,0.001
27/04/2023,06:22:05,0.044,0.0,0.027,0.001
27/04/2023,06:23:06,0.044,0.0,0.028,0.001
27/04/2023,06:24:06,0.045,0.0,0.028,0.0
27/04/2023,06:25:06,0.045,0.0,0.029,0.001
27/04/2023,06:26:06,0.045,0.0,0.03,0.001
27/04/2023,06:27:06,0.045,0.0,0.031,0.001
27/04/2023,06:28:06,0.047,0.0,0.031,0.0
27/04/2023,06:29:06,0.048,0.0,0.032,0.001
27/04/2023,06:30:06,0.050,0.0,0.033,0.001
27/04/2023,06:31:05,0.052,0.0,0.034,0.001
27/04/2023,06:32:06,0.053,0.0,0.035,0.001
27/04/2023,06:33:06,0.054,0.0,0.036,0.001
27/04/2023,06:34:05,0.054,0.0,0.037,0.001
27/04/2023,06:35:06,0.055,0.0,0.037,0.0
27/04/2023,06:36:05,0.053,0.0,0.038,0.001
27/04/2023,06:37:06,0.051,0.0,0.039,0.001
27/04/2023,06:38:06,0.053,0.0,0.04,0.001
27/04/2023,06:39:06,0.054,0.0,0.041,0.001
27/04/2023,06:40:06,0.057,0.0,0.042,0.001
27/04/2023,06:41:05,0.057,0.0,0.043,0.001
27/04/2023,06:42:06,0.060,0.0,0.044,0.001
27/04/2023,06:43:06,0.061,0.0,0.045,0.001
27/04/2023,06:44:06,0.062,0.0,0.046,0.001
27/04/2023,06:45:06,0.064,0.0,0.047,0.001
27/04/2023,06:46:05,0.065,0.0,0.048,0.001
27/04/2023,06:47:06,0.066,0.0,0.049,0.001
27/04/2023,06:48:06,0.070,0.0,0.05,0.001
27/04/2023,06:49:06,0.072,0.0,0.051,0.001
27/04/2023,06:50:05,0.075,0.0,0.053,0.002
27/04/2023,06:51:05,0.077,0.0,0.054,0.001
27/04/2023,06:52:06,0.081,0.0,0.055,0.001
27/04/2023,06:53:06,0.084,0.0,0.057,0.002
27/04/2023,06:54:08,0.087,0.0,0.058,0.001
27/04/2023,06:55:06,0.088,0.0,0.06,0.002
27/04/2023,06:56:06,0.091,0.0,0.061,0.001
27/04/2023,06:57:06,0.093,0.0,0.063,0.002
27/04/2023,06:58:05,0.096,0.0,0.064,0.001
27/04/2023,06:59:06,0.099,0.0,0.066,0.002
27/04/2023,07:00:06,0.103,0.0,0.067,0.001
27/04/2023,07:01:05,0.107,0.0,0.069,0.002
27/04/2023,07:02:06,0.111,0.0,0.071,0.002
27/04/2023,07:03:06,0.113,0.0,0.073,0.002
27/04/2023,07:04:06,0.114,0.0,0.075,0.002
27/04/2023,07:05:06,0.115,0.0,0.077,0.002
27/04/2023,07:06:06,0.115,0.0,0.079,0.002
27/04/2023,07:07:06,0.113,0.0,0.081,0.002
27/04/2023,07:08:07,0.111,0.0,0.082,0.001
27/04/2023,07:09:06,0.109,0.0,0.084,0.002
27/04/2023,07:10:06,0.107,0.0,0.086,0.002
27/04/2023,07:11:06,0.105,0.0,0.088,0.002
27/04/2023,07:12:06,0.104,0.0,0.09,0.002
27/04/2023,07:13:06,0.104,0.0,0.091,0.001
27/04/2023,07:14:06,0.106,0.0,0.093,0.002
27/04/2023,07:15:06,0.106,0.0,0.095,0.002
27/04/2023,07:16:06,0.108,0.0,0.097,0.002
27/04/2023,07:17:06,0.112,0.0,0.098,0.001
27/04/2023,07:18:06,0.115,0.0,0.1,0.002
27/04/2023,07:19:06,0.118,0.0,0.102,0.002
27/04/2023,07:20:06,0.119,0.0,0.104,0.002
27/04/2023,07:21:06,0.121,0.0,0.106,0.002
27/04/2023,07:22:06,0.124,0.0,0.108,0.002
27/04/2023,07:23:05,0.127,0.0,0.11,0.002
27/04/2023,07:24:06,0.132,0.0,0.113,0.003
27/04/2023,07:25:06,0.136,0.0,0.115,0.002
27/04/2023,07:26:06,0.141,0.0,0.117,0.002
27/04/2023,07:27:06,0.143,0.0,0.119,0.002
27/04/2023,07:28:06,0.143,0.0,0.122,0.003
27/04/2023,07:29:06,0.145,0.0,0.124,0.002
27/04/2023,07:30:06,0.145,0.0,0.127,0.003
27/04/2023,07:31:06,0.147,0.0,0.129,0.002
27/04/2023,07:32:06,0.147,0.0,0.132,0.003
27/04/2023,07:33:06,0.147,0.0,0.134,0.002
27/04/2023,07:34:06,0.146,0.0,0.136,0.002
27/04/2023,07:35:06,0.148,0.0,0.139,0.003
27/04/2023,07:36:06,0.151,0.0,0.141,0.002
27/04/2023,07:37:06,0.156,0.0,0.144,0.003
27/04/2023,07:38:06,0.161,0.0,0.147,0.003
27/04/2023,07:39:06,0.169,0.0,0.149,0.002
27/04/2023,07:40:06,0.174,0.0,0.152,0.003
27/04/2023,07:41:05,0.180,0.0,0.155,0.003
27/04/2023,07:42:06,0.185,0.0,0.158,0.003
27/04/2023,07:43:05,0.189,0.0,0.161,0.003
27/04/2023,07:44:06,0.191,0.0,0.164,0.003
27/04/2023,07:45:06,0.189,0.0,0.168,0.004
27/04/2023,07:46:06,0.188,0.0,0.171,0.003
27/04/2023,07:47:06,0.186,0.0,0.174,0.003
27/04/2023,07:48:06,0.185,0.0,0.177,0.003
27/04/2023,07:49:05,0.182,0.0,0.18,0.003
27/04/2023,07:50:06,0.178,0.0,0.183,0.003
27/04/2023,07:51:06,0.173,0.0,0.186,0.003
27/04/2023,07:52:06,0.168,0.0,0.189,0.003
27/04/2023,07:53:06,0.162,0.0,0.192,0.003
27/04/2023,07:54:06,0.159,0.0,0.194,0.002
27/04/2023,07:55:06,0.160,0.0,0.197,0.003
27/04/2023,07:56:06,0.161,0.0,0.2,0.003
27/04/2023,07:57:06,0.162,0.0,0.202,0.002
27/04/2023,07:58:06,0.162,0.0,0.205,0.003
27/04/2023,07:59:06,0.163,0.0,0.208,0.003
27/04/2023,08:00:06,0.165,0.0,0.21,0.002
27/04/2023,08:01:06,0.167,0.0,0.213,0.003
27/04/2023,08:02:06,0.170,0.0,0.216,0.003
27/04/2023,08:03:06,0.172,0.0,0.219,0.003
27/04/2023,08:04:06,0.176,0.0,0.222,0.003
27/04/2023,08:05:05,0.180,0.0,0.225,0.003
27/04/2023,08:06:06,0.185,0.0,0.228,0.003
27/04/2023,08:07:06,0.189,0.0,0.231,0.003
27/04/2023,08:08:06,0.194,0.0,0.234,0.003
27/04/2023,08:09:06,0.197,0.0,0.237,0.003
27/04/2023,08:10:06,0.202,0.0,0.241,0.004
27/04/2023,08:11:06,0.209,0.0,0.244,0.003
27/04/2023,08:12:06,0.218,1.0,0.248,0.004
27/04/2023,08:13:06,0.228,1.0,0.251,0.003
27/04/2023,08:14:06,0.239,1.0,0.255,0.004
27/04/2023,08:15:06,0.251,1.0,0.259,0.004
27/04/2023,08:16:06,0.261,1.0,0.264,0.005
27/04/2023,08:17:06,0.270,1.0,0.268,0.004
27/04/2023,08:18:06,0.277,1.0,0.273,0.005
27/04/2023,08:19:05,0.287,1.0,0.277,0.004
27/04/2023,08:20:06,0.297,1.0,0.282,0.005
27/04/2023,08:21:06,0.306,1.0,0.287,0.005
27/04/2023,08:22:06,0.310,1.0,0.292,0.005
27/04/2023,08:23:06,0.312,1.0,0.298,0.006
27/04/2023,08:24:06,0.308,1.0,0.303,0.005
27/04/2023,08:25:06,0.302,1.0,0.308,0.005
27/04/2023,08:26:05,0.301,1.0,0.313,0.005
27/04/2023,08:27:06,0.305,1.0,0.318,0.005
27/04/2023,08:28:06,0.312,1.0,0.323,0.005
27/04/2023,08:29:06,0.319,1.0,0.328,0.005
27/04/2023,08:30:06,0.323,1.0,0.334,0.006
27/04/2023,08:31:06,0.324,1.0,0.339,0.005
27/04/2023,08:32:06,0.324,1.0,0.344,0.005
27/04/2023,08:33:06,0.327,1.0,0.35,0.006
27/04/2023,08:34:06,0.325,1.0,0.355,0.005
27/04/2023,08:35:06,0.323,1.0,0.361,0.006
27/04/2023,08:36:06,0.320,1.0,0.366,0.005
27/04/2023,08:37:05,0.317,1.0,0.371,0.005
27/04/2023,08:38:06,0.319,1.0,0.377,0.006
27/04/2023,08:39:06,0.321,1.0,0.382,0.005
27/04/2023,08:40:06,0.323,1.0,0.387,0.005
27/04/2023,08:41:06,0.327,1.0,0.393,0.006
27/04/2023,08:42:06,0.336,1.0,0.398,0.005
27/04/2023,08:43:06,0.347,1.0,0.404,0.006
27/04/2023,08:44:06,0.361,1.0,0.41,0.006
27/04/2023,08:45:06,0.374,1.0,0.416,0.006
27/04/2023,08:46:07,0.383,1.0,0.422,0.006
27/04/2023,08:47:06,0.384,1.0,0.429,0.007
27/04/2023,08:48:06,0.380,1.0,0.435,0.006
27/04/2023,08:49:06,0.375,1.0,0.441,0.006
27/04/2023,08:50:06,0.366,1.0,0.448,0.007
27/04/2023,08:51:06,0.365,1.0,0.454,0.006
27/04/2023,08:52:06,0.374,1.0,0.46,0.006
27/04/2023,08:53:06,0.386,1.0,0.466,0.006
27/04/2023,08:54:06,0.403,1.0,0.473,0.007
27/04/2023,08:55:05,0.418,1.0,0.48,0.007
27/04/2023,08:56:06,0.430,1.0,0.487,0.007
27/04/2023,08:57:06,0.444,1.0,0.494,0.007
27/04/2023,08:58:06,0.453,1.0,0.501,0.007
27/04/2023,08:59:08,0.456,1.0,0.509,0.008
27/04/2023,09:00:06,0.454,1.0,0.517,0.008
27/04/2023,09:01:06,0.449,1.0,0.524,0.007
27/04/2023,09:02:06,0.443,1.0,0.531,0.007
27/04/2023,09:03:06,0.442,1.0,0.539,0.008
27/04/2023,09:04:06,0.451,1.0,0.546,0.007
27/04/2023,09:05:06,0.459,1.0,0.554,0.008
27/04/2023,09:06:06,0.471,1.0,0.562,0.008
27/04/2023,09:07:06,0.481,1.0,0.57,0.008
27/04/2023,09:08:06,0.491,1.0,0.578,0.008
27/04/2023,09:09:06,0.496,1.0,0.586,0.008
27/04/2023,09:10:06,0.494,1.0,0.594,0.008
27/04/2023,09:11:06,0.491,1.0,0.602,0.008
27/04/2023,09:12:06,0.489,1.0,0.611,0.009
27/04/2023,09:13:06,0.485,1.0,0.619,0.008
27/04/2023,09:14:06,0.482,1.0,0.627,0.008
27/04/2023,09:15:06,0.478,1.0,0.635,0.008
27/04/2023,09:16:06,0.481,1.0,0.643,0.008
27/04/2023,09:17:07,0.481,1.0,0.651,0.008
27/04/2023,09:18:07,0.477,1.0,0.659,0.008
27/04/2023,09:19:06,0.484,1.0,0.667,0.008
27/04/2023,09:20:06,0.510,1.0,0.675,0.008
27/04/2023,09:21:06,0.539,1.0,0.684,0.009
27/04/2023,09:22:06,0.539,1.0,0.693,0.009
27/04/2023,09:23:06,0.511,1.0,0.701,0.008
27/04/2023,09:24:06,0.492,1.0,0.71,0.009
27/04/2023,09:25:06,0.489,1.0,0.718,0.008
27/04/2023,09:26:06,0.496,1.0,0.726,0.008
27/04/2023,09:27:06,0.501,1.0,0.735,0.009
27/04/2023,09:28:06,0.491,1.0,0.743,0.008
27/04/2023,09:29:06,0.480,1.0,0.751,0.008
27/04/2023,09:30:06,0.478,1.0,0.759,0.008
27/04/2023,09:31:07,0.482,1.0,0.767,0.008
27/04/2023,09:32:07,0.486,1.0,0.775,0.008
27/04/2023,09:33:06,0.498,1.0,0.783,0.008
27/04/2023,09:34:06,0.494,1.0,0.791,0.008
27/04/2023,09:35:06,0.467,1.0,0.799,0.008
27/04/2023,09:36:06,0.429,1.0,0.807,0.008
27/04/2023,09:37:06,0.396,1.0,0.814,0.007
27/04/2023,09:38:06,0.384,1.0,0.82,0.006
27/04/2023,09:39:06,0.394,1.0,0.827,0.007
27/04/2023,09:40:06,0.420,1.0,0.833,0.006
27/04/2023,09:41:06,0.432,1.0,0.841,0.008
27/04/2023,09:42:06,0.422,1.0,0.848,0.007
27/04/2023,09:43:06,0.414,1.0,0.855,0.007
27/04/2023,09:44:06,0.405,1.0,0.861,0.006
27/04/2023,09:45:06,0.421,1.0,0.868,0.007
27/04/2023,09:46:06,0.435,1.0,0.875,0.007
27/04/2023,09:47:06,0.420,1.0,0.883,0.008
27/04/2023,09:48:06,0.407,1.0,0.889,0.006
27/04/2023,09:49:06,0.431,1.0,0.896,0.007
27/04/2023,09:50:06,0.462,1.0,0.904,0.008
27/04/2023,09:51:06,0.470,1.0,0.912,0.008
27/04/2023,09:52:06,0.466,1.0,0.919,0.007
27/04/2023,09:53:06,0.469,1.0,0.927,0.008
27/04/2023,09:54:06,0.465,1.0,0.935,0.008
27/04/2023,09:55:07,0.483,1.0,0.943,0.008
27/04/2023,09:56:07,0.534,1.0,0.951,0.008
27/04/2023,09:57:06,0.588,1.0,0.961,0.01
27/04/2023,09:58:06,0.622,1.0,0.971,0.01
27/04/2023,09:59:06,0.638,1.0,0.981,0.01
27/04/2023,10:00:06,0.671,2.0,0.992,0.011
27/04/2023,10:01:06,0.725,2.0,1.004,0.012
27/04/2023,10:02:06,0.797,2.0,1.016,0.012